Location: Colle Pacifico
(43.5333°N, 13.3167°E)
Time: 20:43:26
(UTC+00:00)

ERS-2 - Pass Details

Date: 07 June 2020
Orbit: 493 x 499 km, 98.5° (Epoch: 11 July)

Event Time Altitude Azimuth Distance (km) Brightness Sun altitude
Exits shadow 02:49:38 - 191° (S) 2,437 5.2 -6.1°
Reaches altitude 10° 02:51:34 10° 202° (SSW) 1,699 4.3 -5.9°
Maximum altitude 02:54:44 28° 262° (W) 968 3.1 -5.4°
Drops below altitude 10° 02:57:57 10° 323° (NW) 1,712 4.9 -5.0°
Sets 03:00:15 0° 335° (NNW) 2,600 5.9 -4.6°
